This is the latest recevied weather packets stored in our database for station/object GJ7DNI-13. If no packets are shown the sender has not sent any weather packets the latest 10 day(s).
| Time | Temp. | Humidity | Pressure | Rain* | Wind** | Luminosity | Snow |
|---|---|---|---|---|---|---|---|
| 1777833301 | 15.56° C | 77% | 1008.9 hPa | 0 mm | - | 69 W/m² | - |
| 1777833001 | 15.56° C | 77% | 1008.8 hPa | 0 mm | - | 84 W/m² | - |
| 1777832701 | 15.56° C | 77% | 1008.8 hPa | 0 mm | - | 90 W/m² | - |
| 1777832401 | 15.56° C | 76% | 1008.8 hPa | 0 mm | - | 109 W/m² | - |
| 1777832101 | 15.56° C | 76% | 1008.9 hPa | 0 mm | - | 121 W/m² | - |
| 1777831801 | 16.11° C | 75% | 1008.8 hPa | 0 mm | - | 141 W/m² | - |
| 1777831501 | 16.67° C | 73% | 1008.8 hPa | 0 mm | - | 149 W/m² | - |
| 1777831200 | 17.22° C | 73% | 1008.7 hPa | 0 mm | - | 169 W/m² | - |
| 1777830900 | 17.22° C | 73% | 1008.7 hPa | 0 mm | - | 200 W/m² | - |
| 1777830601 | 17.22° C | 73% | 1008.6 hPa | 0 mm | - | 229 W/m² | - |
| 1777830301 | 17.22° C | 73% | 1008.6 hPa | 0 mm | - | 223 W/m² | - |
| 1777830001 | 16.67° C | 73% | 1008.7 hPa | 0 mm | - | 244 W/m² | - |
| 1777829701 | 16.67° C | 73% | 1008.7 hPa | 0 mm | - | 251 W/m² | - |
| 1777829401 | 16.67° C | 73% | 1008.7 hPa | 0 mm | - | 241 W/m² | - |
| 1777829101 | 17.22° C | 72% | 1008.6 hPa | 0 mm | - | 113 W/m² | - |
| 1777828801 | 17.22° C | 73% | 1008.6 hPa | 0 mm | - | 299 W/m² | - |
| 1777828501 | 17.22° C | 73% | 1008.5 hPa | 0 mm | - | 192 W/m² | - |
| 1777828201 | 17.22° C | 72% | 1008.5 hPa | 0 mm | - | 309 W/m² | - |
| 1777827901 | 17.78° C | 71% | 1008.5 hPa | 0 mm | - | 322 W/m² | - |
| 1777827601 | 17.22° C | 72% | 1008.5 hPa | 0 mm | - | 336 W/m² | - |
| 1777827301 | 17.22° C | 73% | 1008.5 hPa | 0 mm | - | 350 W/m² | - |
| 1777827001 | 17.22° C | 76% | 1008.4 hPa | 0 mm | - | 366 W/m² | - |
| 1777826701 | 16.67° C | 73% | 1008.3 hPa | 0 mm | - | 385 W/m² | - |
| 1777826401 | 16.67° C | 76% | 1008.3 hPa | 0 mm | - | 390 W/m² | - |
| 1777826101 | 17.22° C | 74% | 1008.3 hPa | 0 mm | - | 406 W/m² | - |
* Rain latest hour (hover to see other rain measurements)
** Current wind speed in m/s (hover to see current wind gust speed)